Flag for Germany Weather past 2 weeks in Görlitz, Saxony, Germany

Now
61 °F

Overcast.


Feels Like: 61 °F
Forecast: 50 / 57 °F
Wind: 2 mph from West

Location: Goerlitz

Current Time: Sep 21, 2014 at 6:34:39 PM

Latest Report: Sep 21, 2014 at 6:00 PM


Visibility: 8 mi

Pressure: 29.83 "Hg

Humidity: 93%

Dew point: 59 °F

Location of GörlitzLocation

Historic Weather in Görlitz — Graph

°F

Görlitz temperature yesterday

Maximum temperature yesterday: 69 °F (at 1:00 PM)
Minimum temperature yesterday: 60 °F (at 11:00 PM)
Average temperature yesterday: 63 °F

Past Weeks' High & Low Weather Summary

 TemperatureHumidityPressure
High79 °F (Sep 7, 3:00 PM)100% (Sep 15, 7:00 AM)30.12 "Hg (Sep 15, 7:00 AM)
Low52 °F (Sep 17, 7:00 AM)50% (Sep 7, 3:00 PM)29.83 "Hg (Sep 21, 5:00 PM)
Average62 °F85%30.01 "Hg
* Reported Sep 6 5:00 PM — Sep 21 5:00 PM, Görlitz, Weather by CustomWeather, © 2014

Note: Actual official high and low records may vary slightly from our data, if they occured in-between our weather recording intervals... More about our weather records

Advertising

Görlitz weather history for previous 24 hours

 ConditionsComfort  
Time TempWeatherWind HumidityBarometerVisibility
5:00 PM
Sep 21
63 °FOvercast.3 mph86%29.83 "Hg11 mi
4:00 PM63 °FLight rain. Overcast.3 mph88%29.83 "Hg11 mi
3:00 PM63 °FLight rain. Overcast.2 mph88%29.85 "Hg12 mi
2:00 PM61 °FLow clouds.3 mph91%29.87 "Hg9 mi
1:00 PM62 °FLow clouds.5 mph88%29.88 "Hg8 mi
12:00 PM62 °FFog.3 mph90%29.88 "Hg3 mi
11:00 AM62 °FLow clouds.5 mph89%29.88 "Hg6 mi
10:00 AM62 °FFog.5 mph92%29.88 "Hg4 mi
9:00 AM62 °FLow clouds.3 mph90%29.87 "Hg6 mi
8:00 AM61 °FLow clouds.5 mph90%29.87 "Hg6 mi
7:00 AM60 °FLow clouds.3 mph91%29.88 "Hg6 mi
6:00 AM61 °FOvercast.3 mph90%29.88 "Hg6 mi
5:00 AM60 °FOvercast.3 mph92%29.88 "Hg6 mi
4:00 AM61 °FOvercast.2 mph90%29.89 "Hg7 mi
3:00 AM61 °FOvercast.3 mph90%29.90 "Hg9 mi
2:00 AM61 °FOvercast.3 mph91%29.90 "Hg7 mi
1:00 AM62 °FOvercast.3 mph92%29.90 "Hg7 mi
12:00 AM61 °FOvercast.3 mph93%29.90 "Hg8 mi
11:00 PM
Sep 20
60 °FOvercast.2 mph93%29.89 "Hg9 mi
10:00 PM62 °FOvercast.3 mph92%29.90 "Hg9 mi
9:00 PM63 °FOvercast.5 mph91%29.90 "Hg9 mi
8:00 PM63 °FOvercast.2 mph93%29.90 "Hg9 mi
Weather by CustomWeather, © 2014

See weather overviewHow to use our weather pages